Miscellaneous Local Product
Issued by NWS Hastings, NE

Home | Current Version | Previous Version | Graphics & Text | Print | Product List | Glossary On
Versions: 1 2 3 4 5 6 7 8 9 10 11 12 13 14 15 16 17 18 19 20 21 22 23 24 25 26 27 28 29 30 31 32 33 34 35 36 37 38 39 40 41 42 43 44 45 46 47 48 49 50
422
AXUS43 KGID 221302
MISGRI

GID CWA HOURLY WEATHER ROUNDUP
NATIONAL WEATHER SERVICE HASTINGS NE
800 AM CDT FRI JUL 22 2016

NOTE: "FAIR" INDICATES FEW OR NO CLOUDS BELOW 12,000 FEET WITH NO
SIGNIFICANT WEATHER AND/OR OBSTRUCTIONS TO VISIBILITY.

...SOUTH CENTRAL NEBRASKA...

CITY           SKY/WX    TMP DP  RH WIND       PRES   REMARKS
GRAND ISLAND   SUNNY     78  72  81 W6        29.96R
HASTINGS       SUNNY     77  68  73 SW5       29.97S
KEARNEY        SUNNY     77  72  83 N6        29.98S
ORD            SUNNY     78  73  84 CALM      29.96S
YORK           SUNNY     75  70  83 S3        29.93F
AURORA         SUNNY     76  71  84 SW5       29.95R
LEXINGTON      SUNNY     74  71  89 NW5       30.00R
HOLDREGE       SUNNY     76  72  89 N3        29.98S
HEBRON         SUNNY     80  67  64 SW10      29.95R

...NEBRASKA PANHANDLE...

CITY           SKY/WX    TMP DP  RH WIND       PRES   REMARKS
CHADRON        CLOUDY    73  63  70 CALM      30.09S
ALLIANCE       CLOUDY    67  63  87 CALM      30.12S
SCOTTSBLUFF    CLOUDY    72  65  78 CALM      30.13R
SIDNEY         PTSUNNY   74  63  68 CALM      30.15S

...WESTERN AND NORTH CENTRAL NEBRASKA...

CITY           SKY/WX    TMP DP  RH WIND       PRES   REMARKS
VALENTINE      SUNNY     71  68  90 W3        30.04S
AINSWORTH      SUNNY     74  73  98 NW5       30.04S
ONEILL         FOG       75  73  94 N5        29.99R VSB<1/4
BROKEN BOW     SUNNY     77  74  90 NW3       30.00S
IMPERIAL       SUNNY     73  66  78 N5        30.08R
NORTH PLATTE   SUNNY     76  71  85 CALM      30.04R
MCCOOK         MOSUNNY   76  70  82 CALM      30.00R

...EASTERN NEBRASKA...

CITY           SKY/WX    TMP DP  RH WIND       PRES   REMARKS
NORFOLK        SUNNY     78  73  84 SE6       29.92S
SO SIOUX CITY  SUNNY     83  77  82 E7        29.91S HX  92
TEKAMAH        MOSUNNY   80  75  84 SE8       29.91S
COLUMBUS       SUNNY     77  66  69 CALM      29.93S
ALBION         SUNNY     76  73  91 CALM      29.95R FOG
OMAHA EPPLEY   CLOUDY    81  73  76 S8        29.93R
OFFUTT AFB     SUNNY     80  74  82 SE6       29.93R
MILLARD        SUNNY     81  74  81 SE3       29.93R
LINCOLN        SUNNY     82  70  66 S6        29.93R
NEBRASKA CITY  SUNNY     80  71  74 SW7       29.94S
BEATRICE       SUNNY     82  69  65 S9        29.95R
FALLS CITY     SUNNY     81  72  74 S8        29.96R

...NORTHERN KANSAS...

CITY           SKY/WX    TMP DP  RH WIND       PRES   REMARKS
GOODLAND       CLOUDY    76  59  55 W8        30.09R
HILL CITY      MOSUNNY   78  64  61 W6        29.98R
NORTON         SUNNY     79  61  53 CALM      29.98R
SMITH CENTER   SUNNY     73  66  78 SE5       29.98R
BELOIT         SUNNY     81  66  61 S8        29.94S
HAYS           MOSUNNY   79  61  53 SW7       29.98S
RUSSELL        SUNNY     79  66  64 S16       29.96R
CONCORDIA      SUNNY     80  67  64 S15       29.95S
SALINA         SUNNY     83  69  62 S15       29.96S
TOPEKA         SUNNY     83  71  67 SW6       29.99S



USA.gov is the U.S. government's official web portal to all federal, state and local government web resources and services.